When you browse on this site, cookies collect data to enhance your experience and personalize the content and advertising you see.
Visit our Privacy Policy to learn more. By continuing to use the site, you agree to this use of cookies and data.
  • Em Portugal
  • Lista de países
  • Para 7 dias
  • Temperatura da água
  • Mapas de satélite
  • Mapa do tempo
  • Widgets de tempo
  • user-avatar
    Iniciar Sessão

    Previsão horária em Santa Cruz de la Serra

    Hoje, 19 Abril, Sexta-feira

    Tempo Temperatura Precipitação Vento Pressão Humidade
    00:00 +25°C° 0 mm 2 m/s 721 mmHg 88%
    01:00 +25°C° 0 mm 2 m/s 721 mmHg 89%
    02:00 +25°C° 0 mm 2 m/s 721 mmHg 87%
    03:00 +25°C° 0 mm 3 m/s 721 mmHg 88%
    04:00 +25°C° 0 mm 3 m/s 721 mmHg 88%
    05:00 +25°C° 0 mm 3 m/s 721 mmHg 88%
    06:00 +25°C° 0 mm 3 m/s 721 mmHg 85%
    07:00 +26°C° 0 mm 4 m/s 722 mmHg 82%
    08:00 +27°C° 0 mm 4 m/s 722 mmHg 80%
    09:00 +28°C° 0.1 mm 5 m/s 722 mmHg 75%
    10:00 +29°C° 0.1 mm 5 m/s 722 mmHg 70%
    11:00 +32°C° 0.1 mm 5 m/s 722 mmHg 65%
    12:00 +33°C° 0 mm 5 m/s 722 mmHg 61%
    13:00 +34°C° 0 mm 5 m/s 721 mmHg 58%
    14:00 +34°C° 0 mm 5 m/s 720 mmHg 54%
    15:00 +34°C° 0 mm 5 m/s 720 mmHg 56%
    16:00 +33°C° 0 mm 4 m/s 719 mmHg 59%
    17:00 +33°C° 0 mm 4 m/s 719 mmHg 61%
    18:00 +30°C° 0 mm 3 m/s 719 mmHg 66%
    19:00 +29°C° 0 mm 3 m/s 720 mmHg 71%
    20:00 +28°C° 0 mm 2 m/s 720 mmHg 76%
    21:00 +27°C° 0 mm 2 m/s 721 mmHg 78%
    22:00 +27°C° 0 mm 2 m/s 721 mmHg 80%
    23:00 +27°C° 0 mm 2 m/s 722 mmHg 82%

    Amanhã, 20 Abril, Sábado

    Tempo Temperatura Precipitação Vento Pressão Humidade
    00:00 +27°C° 0 mm 2 m/s 721 mmHg 83%
    01:00 +27°C° 0 mm 3 m/s 721 mmHg 83%
    02:00 +27°C° 0 mm 3 m/s 721 mmHg 83%
    03:00 +26°C° 0 mm 3 m/s 721 mmHg 85%
    04:00 +26°C° 0 mm 3 m/s 721 mmHg 88%
    05:00 +26°C° 0 mm 3 m/s 721 mmHg 90%
    06:00 +26°C° 0 mm 3 m/s 722 mmHg 88%
    07:00 +27°C° 0 mm 3 m/s 722 mmHg 86%
    08:00 +27°C° 0 mm 4 m/s 723 mmHg 84%
    09:00 +29°C° 0 mm 4 m/s 723 mmHg 75%
    10:00 +32°C° 0 mm 5 m/s 723 mmHg 67%
    11:00 +33°C° 0 mm 5 m/s 723 mmHg 59%
    12:00 +34°C° 0 mm 5 m/s 722 mmHg 56%
    13:00 +35°C° 0 mm 5 m/s 721 mmHg 53%
    14:00 +36°C° 0 mm 5 m/s 720 mmHg 50%
    15:00 +35°C° 0 mm 5 m/s 720 mmHg 52%
    16:00 +34°C° 0 mm 4 m/s 719 mmHg 55%
    17:00 +33°C° 0 mm 4 m/s 719 mmHg 58%
    18:00 +32°C° 0 mm 4 m/s 719 mmHg 62%
    19:00 +30°C° 0 mm 3 m/s 720 mmHg 67%
    20:00 +29°C° 0 mm 3 m/s 720 mmHg 71%
    21:00 +28°C° 0 mm 3 m/s 721 mmHg 74%
    22:00 +28°C° 0 mm 3 m/s 721 mmHg 76%
    23:00 +27°C° 0 mm 2 m/s 721 mmHg 79%

    Depois de amanhã, 21 Abril, Domingo

    Tempo Temperatura Precipitação Vento Pressão Humidade
    00:00 +27°C° 0.2 mm 3 m/s 721 mmHg 83%
    01:00 +26°C° 0.2 mm 3 m/s 721 mmHg 86%
    02:00 +26°C° 0.2 mm 3 m/s 720 mmHg 90%
    03:00 +26°C° 0.1 mm 3 m/s 720 mmHg 90%
    04:00 +26°C° 0.1 mm 3 m/s 720 mmHg 90%
    05:00 +26°C° 0.1 mm 3 m/s 720 mmHg 91%
    06:00 +26°C° 0.1 mm 4 m/s 720 mmHg 90%
    07:00 +26°C° 0.1 mm 4 m/s 721 mmHg 89%
    08:00 +27°C° 0.1 mm 4 m/s 721 mmHg 89%
    09:00 +28°C° 0.1 mm 5 m/s 721 mmHg 81%
    10:00 +30°C° 0.1 mm 5 m/s 721 mmHg 73%
    11:00 +32°C° 0.1 mm 6 m/s 721 mmHg 65%
    12:00 +33°C° 0.1 mm 6 m/s 720 mmHg 62%
    13:00 +34°C° 0.1 mm 6 m/s 719 mmHg 58%
    14:00 +34°C° 0.1 mm 6 m/s 718 mmHg 55%
    15:00 +34°C° 0 mm 6 m/s 718 mmHg 57%
    16:00 +33°C° 0 mm 5 m/s 717 mmHg 59%
    17:00 +33°C° 0 mm 5 m/s 717 mmHg 61%
    18:00 +32°C° 0 mm 4 m/s 717 mmHg 65%
    19:00 +30°C° 0 mm 3 m/s 718 mmHg 70%
    20:00 +29°C° 0 mm 3 m/s 719 mmHg 74%
    21:00 +28°C° 0.1 mm 3 m/s 719 mmHg 77%
    22:00 +28°C° 0.1 mm 3 m/s 720 mmHg 80%
    23:00 +27°C° 0.1 mm 3 m/s 720 mmHg 82%

    22 Abril, Segunda-feira

    Tempo Temperatura Precipitação Vento Pressão Humidade
    00:00 +27°C° 0 mm 3 m/s 720 mmHg 82%
    01:00 +27°C° 0 mm 3 m/s 720 mmHg 83%
    02:00 +27°C° 0 mm 3 m/s 719 mmHg 83%
    03:00 +27°C° 0.1 mm 3 m/s 719 mmHg 85%
    04:00 +26°C° 0.1 mm 3 m/s 719 mmHg 87%
    05:00 +26°C° 0.1 mm 3 m/s 719 mmHg 90%
    06:00 +26°C° 1.1 mm 3 m/s 720 mmHg 90%
    07:00 +26°C° 1.1 mm 3 m/s 721 mmHg 91%
    08:00 +26°C° 1.1 mm 3 m/s 721 mmHg 92%
    09:00 +27°C° 3.3 mm 3 m/s 721 mmHg 89%
    10:00 +28°C° 3.3 mm 3 m/s 722 mmHg 87%
    11:00 +29°C° 3.3 mm 2 m/s 722 mmHg 84%
    12:00 +29°C° 4.8 mm 2 m/s 721 mmHg 85%
    13:00 +29°C° 4.8 mm 2 m/s 720 mmHg 86%
    14:00 +28°C° 4.8 mm 2 m/s 720 mmHg 86%
    15:00 +27°C° 2.5 mm 2 m/s 720 mmHg 88%
    16:00 +27°C° 2.5 mm 3 m/s 720 mmHg 90%
    17:00 +26°C° 2.5 mm 3 m/s 720 mmHg 91%
    18:00 +25°C° 0.1 mm 3 m/s 721 mmHg 89%
    19:00 +25°C° 0.1 mm 4 m/s 722 mmHg 87%
    20:00 +25°C° 0.1 mm 4 m/s 723 mmHg 85%
    21:00 +25°C° 0.3 mm 4 m/s 723 mmHg 85%
    22:00 +23°C° 0.3 mm 4 m/s 724 mmHg 85%
    23:00 +23°C° 0.3 mm 5 m/s 724 mmHg 85%

    23 Abril, Terça-feira

    Tempo Temperatura Precipitação Vento Pressão Humidade
    00:00 +22°C° 0.3 mm 5 m/s 724 mmHg 86%
    01:00 +22°C° 0.3 mm 5 m/s 724 mmHg 87%
    02:00 +22°C° 0.3 mm 5 m/s 724 mmHg 88%
    03:00 +21°C° 0.3 mm 5 m/s 724 mmHg 88%
    04:00 +21°C° 0.3 mm 5 m/s 724 mmHg 87%
    05:00 +21°C° 0.3 mm 5 m/s 724 mmHg 87%
    06:00 +21°C° 0.1 mm 5 m/s 725 mmHg 85%
    07:00 +21°C° 0.1 mm 5 m/s 725 mmHg 82%
    08:00 +21°C° 0.1 mm 5 m/s 726 mmHg 80%
    09:00 +23°C° 0 mm 5 m/s 726 mmHg 74%
    10:00 +25°C° 0 mm 5 m/s 726 mmHg 67%
    11:00 +27°C° 0 mm 5 m/s 727 mmHg 60%
    12:00 +28°C° 0 mm 4 m/s 726 mmHg 58%
    13:00 +28°C° 0 mm 4 m/s 725 mmHg 55%
    14:00 +29°C° 0 mm 4 m/s 724 mmHg 52%
    15:00 +29°C° 0 mm 3 m/s 724 mmHg 55%
    16:00 +28°C° 0 mm 2 m/s 724 mmHg 58%
    17:00 +28°C° 0 mm 2 m/s 723 mmHg 61%
    18:00 +26°C° 0 mm 2 m/s 724 mmHg 64%
    19:00 +25°C° 0 mm 2 m/s 724 mmHg 67%
    20:00 +24°C° 0 mm 2 m/s 724 mmHg 70%
    21:00 +23°C° 0 mm 2 m/s 725 mmHg 71%
    22:00 +23°C° 0 mm 2 m/s 725 mmHg 72%
    23:00 +21°C° 0 mm 2 m/s 725 mmHg 74%

    24 Abril, Quarta-feira

    Tempo Temperatura Precipitação Vento Pressão Humidade
    00:00 +21°C° 0 mm 2 m/s 725 mmHg 75%
    01:00 +21°C° 0 mm 2 m/s 725 mmHg 76%
    02:00 +21°C° 0 mm 2 m/s 725 mmHg 76%
    03:00 +21°C° 0 mm 3 m/s 725 mmHg 77%
    04:00 +20°C° 0 mm 3 m/s 725 mmHg 77%
    05:00 +20°C° 0 mm 3 m/s 725 mmHg 78%
    06:00 +21°C° 0 mm 3 m/s 725 mmHg 77%
    07:00 +21°C° 0 mm 3 m/s 726 mmHg 76%
    08:00 +21°C° 0 mm 3 m/s 726 mmHg 75%
    09:00 +24°C° 0 mm 3 m/s 726 mmHg 70%
    10:00 +25°C° 0 mm 3 m/s 726 mmHg 65%
    11:00 +27°C° 0 mm 3 m/s 726 mmHg 60%
    12:00 +28°C° 0 mm 2 m/s 725 mmHg 57%
    13:00 +29°C° 0 mm 2 m/s 724 mmHg 54%
    14:00 +30°C° 0 mm 2 m/s 723 mmHg 51%
    15:00 +29°C° 0 mm 1 m/s 723 mmHg 54%
    16:00 +29°C° 0 mm 1 m/s 723 mmHg 57%
    17:00 +28°C° 0 mm 1 m/s 722 mmHg 61%
    18:00 +27°C° 0 mm 1 m/s 723 mmHg 64%
    19:00 +26°C° 0 mm 1 m/s 723 mmHg 67%
    20:00 +22°C° 0 mm 0 m/s 724 mmHg 70%
    21:00 +24°C° 0 mm 1 m/s 724 mmHg 71%
    22:00 +24°C° 0 mm 1 m/s 724 mmHg 71%
    23:00 +24°C° 0 mm 1 m/s 725 mmHg 71%
    Mostrar mais